| time (UTC) | temp C | wind direction | speed KPH | gust KPH | rain 1hr cm | rain 24hr cm | rain mn cm | humidity % | barometer mb |
| 20260506134525 | 28 | 186 | 4.8 | 17.7 | 0.00 | 0.00 | 0.00 | 30 | 1010.9 |
| 20260506133520 | 28 | 178 | 6.4 | 9.7 | 0.00 | 0.00 | 0.00 | 29 | 1011.0 |
| 20260506132516 | 28 | 181 | 4.8 | 11.3 | 0.00 | 0.00 | 0.00 | 28 | 1011.1 |
| 20260506131533 | 28 | 191 | 4.8 | 17.7 | 0.00 | 0.00 | 0.00 | 29 | 1011.0 |
| 20260506130529 | 28 | 188 | 6.4 | 16.1 | 0.00 | 0.00 | 0.00 | 27 | 1011.2 |
| 20260506125526 | 27 | 189 | 6.4 | 17.7 | 0.00 | 0.00 | 0.00 | 28 | 1011.2 |
| 20260506124521 | 28 | 187 | 9.7 | 20.9 | 0.00 | 0.00 | 0.00 | 27 | 1011.4 |
| 20260506123542 | 28 | 190 | 6.4 | 17.7 | 0.00 | 0.00 | 0.00 | 28 | 1011.5 |
| 20260506122534 | 27 | 198 | 8.0 | 19.3 | 0.00 | 0.00 | 0.00 | 28 | 1011.7 |
| 20260506121550 | 28 | 194 | 9.7 | 19.3 | 0.00 | 0.00 | 0.00 | 27 | 1011.8 |
| 20260506120531 | 27 | 181 | 6.4 | 20.9 | 0.00 | 0.00 | 0.00 | 28 | 1011.8 |
| 20260506115523 | 27 | 193 | 9.7 | 22.5 | 0.00 | 0.00 | 0.00 | 27 | 1011.9 |
| 20260506114543 | 27 | 195 | 11.3 | 25.7 | 0.00 | 0.00 | 0.00 | 26 | 1012.1 |
| 20260506113534 | 28 | 186 | 8.0 | 22.5 | 0.00 | 0.00 | 0.00 | 27 | 1012.1 |
| 20260506112531 | 27 | 185 | 8.0 | 22.5 | 0.00 | 0.00 | 0.00 | 28 | 1012.2 |
| 20260506111528 | 27 | 188 | 12.9 | 29.0 | 0.00 | 0.00 | 0.00 | 27 | 1012.3 |
| 20260506110545 | 27 | 189 | 9.7 | 20.9 | 0.00 | 0.00 | 0.00 | 28 | 1012.5 |
| 20260506105540 | 27 | 193 | 11.3 | 27.4 | 0.00 | 0.00 | 0.00 | 28 | 1012.6 |
| 20260506104536 | 27 | 188 | 9.7 | 22.5 | 0.00 | 0.00 | 0.00 | 28 | 1012.7 |
| 20260506103531 | 27 | 192 | 6.4 | 16.1 | 0.00 | 0.00 | 0.00 | 36 | 1012.8 |
| 20260506102528 | 27 | 201 | 8.0 | 19.3 | 0.00 | 0.00 | 0.00 | 34 | 1012.9 |
| 20260506101524 | 26 | 181 | 6.4 | 24.1 | 0.00 | 0.00 | 0.00 | 41 | 1012.9 |
| 20260506100521 | 26 | 199 | 4.8 | 11.3 | 0.00 | 0.00 | 0.00 | 41 | 1012.8 |
| 20260506095517 | 26 | 185 | 3.2 | 9.7 | 0.00 | 0.00 | 0.00 | 42 | 1012.9 |
| 20260506094552 | 26 | 183 | 4.8 | 11.3 | 0.00 | 0.00 | 0.00 | 43 | 1013.2 |
| 20260506093529 | 25 | 186 | 6.4 | 14.5 | 0.00 | 0.00 | 0.00 | 44 | 1013.2 |
| 20260506092545 | 25 | 170 | 3.2 | 8.0 | 0.00 | 0.00 | 0.00 | 46 | 1013.3 |
| 20260506091522 | 24 | 179 | 3.2 | 12.9 | 0.00 | 0.00 | 0.00 | 45 | 1013.4 |
| 20260506090538 | 23 | 205 | 1.6 | 8.0 | 0.00 | 0.00 | 0.00 | 48 | 1013.4 |
| 20260506085534 | 23 | 198 | 3.2 | 9.7 | 0.00 | 0.00 | 0.00 | 48 | 1013.4 |
| 20260506084529 | 23 | 171 | 3.2 | 8.0 | 0.00 | 0.00 | 0.00 | 50 | 1013.4 |
| 20260506083526 | 23 | 103 | 3.2 | 11.3 | 0.00 | 0.00 | 0.00 | 50 | 1013.4 |
| 20260506082523 | 22 | 124 | 3.2 | 9.7 | 0.00 | 0.00 | 0.00 | 50 | 1013.5 |
| 20260506081519 | 22 | 159 | 1.6 | 6.4 | 0.00 | 0.00 | 0.00 | 50 | 1013.5 |
| 20260506080535 | 21 | 162 | 1.6 | 6.4 | 0.00 | 0.00 | 0.00 | 50 | 1013.5 |
| 20260506073522 | 20 | 170 | 1.6 | 4.8 | 0.00 | 0.00 | 0.00 | 52 | 1013.6 |
| 20260506072520 | 20 | 177 | 6.4 | 9.7 | 0.00 | 0.00 | 0.00 | 51 | 1013.6 |
| 20260506071616 | 19 | 176 | 4.8 | 8.0 | 0.00 | 0.00 | 0.00 | 53 | 1013.7 |
| 20260506070531 | 18 | 187 | 4.8 | 11.3 | 0.00 | 0.00 | 0.00 | 53 | 1013.6 |
| 20260506062516 | 17 | 153 | 3.2 | 8.0 | 0.00 | 0.00 | 0.00 | 56 | 1013.5 |
| 20260506061533 | 17 | 177 | 3.2 | 6.4 | 0.00 | 0.00 | 0.00 | 58 | 1013.7 |
| 20260506060529 | 16 | 175 | 3.2 | 8.0 | 0.00 | 0.00 | 0.00 | 61 | 1013.5 |
| 20260506050526 | 15 | 109 | 3.2 | 8.0 | 0.00 | 0.00 | 0.00 | 67 | 1013.6 |
| 20260506044518 | 14 | 125 | 3.2 | 4.8 | 0.00 | 0.00 | 0.00 | 67 | 1013.4 |
| 20260506043555 | 13 | 126 | 3.2 | 6.4 | 0.00 | 0.00 | 0.00 | 68 | 1013.3 |
| 20260506042531 | 13 | 88 | 4.8 | 6.4 | 0.00 | 0.00 | 0.00 | 69 | 1013.3 |
| 20260506041527 | 12 | 111 | 1.6 | 6.4 | 0.00 | 0.00 | 0.00 | 71 | 1013.2 |
| 20260506040525 | 12 | 136 | 3.2 | 6.4 | 0.00 | 0.00 | 0.00 | 70 | 1013.2 |
| 20260506035519 | 11 | 121 | 3.2 | 4.8 | 0.00 | 0.00 | 0.00 | 73 | 1013.2 |
| 20260506034535 | 10 | 141 | 4.8 | 6.4 | 0.00 | 0.00 | 0.00 | 76 | 1013.2 |
| 20260506033552 | 9 | 72 | 1.6 | 3.2 | 0.00 | 0.00 | 0.00 | 78 | 1013.2 |
| 20260506032529 | 9 | 129 | 3.2 | 4.8 | 0.00 | 0.00 | 0.00 | 79 | 1013.1 |
| 20260506031525 | 8 | 130 | 1.6 | 3.2 | 0.00 | 0.00 | 0.00 | 81 | 1013.0 |
| 20260506030525 | 8 | 98 | 1.6 | 4.8 | 0.00 | 0.00 | 0.00 | 81 | 1012.8 |
| 20260506025516 | 8 | 119 | 4.8 | 6.4 | 0.00 | 0.00 | 0.00 | 81 | 1012.9 |
| 20260506024533 | 9 | 127 | 3.2 | 4.8 | 0.00 | 0.00 | 0.00 | 80 | 1012.8 |
| 20260506023549 | 9 | 124 | 3.2 | 4.8 | 0.00 | 0.00 | 0.00 | 79 | 1012.8 |
| 20260506022524 | 10 | 127 | 1.6 | 4.8 | 0.00 | 0.00 | 0.00 | 78 | 1012.9 |
| 20260506021521 | 10 | 118 | 1.6 | 3.2 | 0.00 | 0.00 | 0.00 | 78 | 1012.8 |
| 20260506020516 | 10 | 125 | 1.6 | 3.2 | 0.00 | 0.00 | 0.00 | 77 | 1012.7 |
| 20260506015537 | 10 | 126 | 1.6 | 4.8 | 0.00 | 0.00 | 0.00 | 76 | 1012.7 |
| 20260506014529 | 10 | 120 | 0.0 | 3.2 | 0.00 | 0.00 | 0.00 | 75 | 1012.6 |
| 20260506013526 | 10 | 119 | 1.6 | 3.2 | 0.00 | 0.00 | 0.00 | 75 | 1012.6 |
| 20260506012522 | 10 | 106 | 0.0 | 3.2 | 0.00 | 0.00 | 0.00 | 74 | 1012.6 |
| 20260506011517 | 10 | 106 | 0.0 | 1.6 | 0.00 | 0.00 | 0.00 | 73 | 1012.6 |
| 20260506010534 | 11 | 98 | 1.6 | 3.2 | 0.00 | 0.00 | 0.00 | 74 | 1012.4 |
| 20260506005530 | 11 | 67 | 1.6 | 4.8 | 0.00 | 0.00 | 0.00 | 71 | 1012.5 |
| 20260506004547 | 13 | 163 | 3.2 | 4.8 | 0.00 | 0.00 | 0.00 | 66 | 1012.5 |
| 20260506003543 | 13 | 151 | 3.2 | 8.0 | 0.00 | 0.00 | 0.00 | 66 | 1012.5 |
| 20260506002520 | 12 | 144 | 3.2 | 6.4 | 0.00 | 0.00 | 0.00 | 68 | 1012.5 |
| 20260506001555 | 13 | 135 | 3.2 | 4.8 | 0.00 | 0.00 | 0.00 | 67 | 1012.5 |
| 20260506000531 | 13 | 162 | 4.8 | 6.4 | 0.00 | 0.00 | 0.00 | 66 | 1012.4 |
| 20260505235527 | 12 | 159 | 4.8 | 6.4 | 0.00 | 0.00 | 0.00 | 67 | 1012.4 |
| 20260505234523 | 12 | 117 | 1.6 | 3.2 | 0.00 | 0.00 | 0.00 | 68 | 1012.4 |
| 20260505233520 | 12 | 120 | 3.2 | 6.4 | 0.00 | 0.00 | 0.00 | 68 | 1012.3 |
| 20260505232516 | 12 | 111 | 3.2 | 3.2 | 0.00 | 0.00 | 0.00 | 68 | 1012.3 |
| 20260505231532 | 13 | 79 | 1.6 | 3.2 | 0.00 | 0.00 | 0.00 | 67 | 1012.4 |
| 20260505230528 | 13 | 133 | 1.6 | 3.2 | 0.00 | 0.00 | 0.00 | 66 | 1012.4 |
| 20260505225524 | 13 | 149 | 1.6 | 4.8 | 0.00 | 0.00 | 0.00 | 65 | 1012.3 |
| 20260505224521 | 13 | 103 | 3.2 | 3.2 | 0.00 | 0.00 | 0.00 | 65 | 1012.4 |
| 20260505223537 | 13 | 91 | 3.2 | 8.0 | 0.00 | 0.00 | 0.00 | 65 | 1012.4 |
| 20260505222533 | 12 | 124 | 3.2 | 4.8 | 0.00 | 0.00 | 0.00 | 65 | 1012.4 |
| 20260505221528 | 13 | 97 | 4.8 | 8.0 | 0.00 | 0.00 | 0.00 | 63 | 1012.4 |
| 20260505220525 | 13 | 102 | 4.8 | 9.7 | 0.00 | 0.00 | 0.00 | 62 | 1012.4 |
| 20260505215521 | 15 | 82 | 3.2 | 4.8 | 0.00 | 0.00 | 0.00 | 59 | 1012.4 |
| 20260505214518 | 15 | 163 | 4.8 | 9.7 | 0.00 | 0.00 | 0.00 | 59 | 1012.2 |
| 20260505213534 | 15 | 131 | 3.2 | 6.4 | 0.00 | 0.00 | 0.00 | 58 | 1012.3 |
| 20260505212530 | 14 | 157 | 4.8 | 9.7 | 0.00 | 0.00 | 0.00 | 58 | 1012.3 |
| 20260505211546 | 14 | 124 | 4.8 | 6.4 | 0.00 | 0.00 | 0.00 | 58 | 1012.3 |
| 20260505210543 | 13 | 140 | 4.8 | 6.4 | 0.00 | 0.00 | 0.00 | 56 | 1012.3 |
| 20260505205518 | 14 | 160 | 4.8 | 8.0 | 0.00 | 0.00 | 0.00 | 55 | 1012.3 |
| 20260505204556 | 14 | 159 | 4.8 | 8.0 | 0.00 | 0.00 | 0.00 | 54 | 1012.3 |
| 20260505203531 | 15 | 136 | 3.2 | 4.8 | 0.00 | 0.00 | 0.00 | 53 | 1012.3 |
| 20260505202547 | 15 | 150 | 4.8 | 4.8 | 0.00 | 0.00 | 0.00 | 53 | 1012.3 |
| 20260505201523 | 14 | 129 | 1.6 | 3.2 | 0.00 | 0.00 | 0.00 | 55 | 1012.3 |
| 20260505200545 | 15 | 123 | 3.2 | 3.2 | 0.00 | 0.00 | 0.00 | 54 | 1012.3 |
| 20260505195556 | 15 | 129 | 3.2 | 4.8 | 0.00 | 0.00 | 0.00 | 52 | 1012.3 |
| 20260505194553 | 16 | 131 | 3.2 | 3.2 | 0.00 | 0.00 | 0.00 | 51 | 1012.2 |
| 20260505193529 | 16 | 155 | 3.2 | 6.4 | 0.00 | 0.00 | 0.00 | 49 | 1012.2 |
| 20260505192524 | 17 | 179 | 6.4 | 9.7 | 0.00 | 0.00 | 0.00 | 47 | 1012.1 |
| 20260505191520 | 17 | 186 | 6.4 | 12.9 | 0.00 | 0.00 | 0.00 | 47 | 1012.0 |
| 20260505190517 | 17 | 185 | 6.4 | 11.3 | 0.00 | 0.00 | 0.00 | 48 | 1012.2 |
| 20260505185533 | 17 | 174 | 4.8 | 11.3 | 0.00 | 0.00 | 0.00 | 48 | 1012.1 |
| 20260505184550 | 17 | 157 | 3.2 | 6.4 | 0.00 | 0.00 | 0.00 | 48 | 1012.1 |
| 20260505183526 | 18 | 164 | 3.2 | 6.4 | 0.00 | 0.00 | 0.00 | 48 | 1012.1 |
| 20260505182541 | 18 | 156 | 3.2 | 4.8 | 0.00 | 0.00 | 0.00 | 47 | 1012.1 |
| 20260505181539 | 18 | 154 | 3.2 | 4.8 | 0.00 | 0.00 | 0.00 | 45 | 1012.0 |
| 20260505180534 | 19 | 165 | 3.2 | 4.8 | 0.00 | 0.00 | 0.00 | 45 | 1012.0 |
| 20260505175612 | 20 | 157 | 3.2 | 4.8 | 0.00 | 0.00 | 0.00 | 44 | 1011.8 |
| 20260505174547 | 21 | 159 | 3.2 | 4.8 | 0.00 | 0.00 | 0.00 | 42 | 1011.8 |
| 20260505173523 | 21 | 161 | 1.6 | 4.8 | 0.00 | 0.00 | 0.00 | 40 | 1011.6 |
| 20260505172518 | 22 | 162 | 3.2 | 4.8 | 0.00 | 0.00 | 0.00 | 38 | 1011.6 |
| 20260505171534 | 22 | 159 | 1.6 | 3.2 | 0.00 | 0.00 | 0.00 | 37 | 1011.6 |
| 20260505170531 | 23 | 159 | 1.6 | 3.2 | 0.00 | 0.00 | 0.00 | 35 | 1011.5 |
| 20260505165527 | 23 | 168 | 1.6 | 4.8 | 0.00 | 0.00 | 0.00 | 34 | 1011.4 |
| 20260505164524 | 24 | 174 | 1.6 | 3.2 | 0.00 | 0.00 | 0.00 | 33 | 1011.5 |
| 20260505163519 | 25 | 154 | 1.6 | 3.2 | 0.00 | 0.00 | 0.00 | 32 | 1011.5 |
| 20260505162536 | 25 | 152 | 0.0 | 3.2 | 0.00 | 0.00 | 0.00 | 31 | 1011.5 |
| 20260505161532 | 25 | 150 | 1.6 | 3.2 | 0.00 | 0.00 | 0.00 | 30 | 1011.5 |
| 20260505160529 | 26 | 173 | 1.6 | 4.8 | 0.00 | 0.00 | 0.00 | 28 | 1011.5 |
| 20260505152532 | 27 | 181 | 1.6 | 6.4 | 0.00 | 0.00 | 0.00 | 27 | 1011.6 |
| 20260505151528 | 27 | 181 | 0.0 | 4.8 | 0.00 | 0.00 | 0.00 | 28 | 1011.7 |
| 20260505150525 | 27 | 187 | 1.6 | 6.4 | 0.00 | 0.00 | 0.00 | 28 | 1011.7 |
| 20260505140522 | 27 | 138 | 3.2 | 8.0 | 0.00 | 0.00 | 0.00 | 29 | 1012.2 |